Location: ????????
(38.5143°N, 22.9495°E)
Time: 20:25:41
(UTC+00:00)

Daily predictions for brighter satellites

Satellite Brightness Start Highest point End
(mag) Time Altitude Azimuth Time Altitude Azimuth Time Altitude Azimuth
Landsat 7 3.8 17:04:08 10° SSE 17:08:49 83° ENE 17:13:32 10° N
ATLAS CENTAUR R/B 3.3 17:05:40 10° NNW 17:10:33 47° NE 17:18:03 10° ESE
Cosmos 2360 Rocket 2.4 17:07:05 10° SSW 17:12:43 79° WNW 17:18:23 10° NNE
Cosmos 1898 Rocket 3.8 17:12:33 10° N 17:17:42 49° ENE 17:22:46 10° SE
Cosmos 1459 Rocket 4.4 17:12:56 10° SSW 17:18:57 68° W 17:24:59 10° N
Okean O Rocket 3.7 17:18:32 10° ENE 17:19:23 10° ENE 17:20:15 10° NE
Cosmos 2322 Rocket 3.2 17:16:03 10° SW 17:21:36 52° WNW 17:27:10 10° NNE
USA 306 3.5 17:19:42 10° S 17:21:51 19° SE 17:24:19 10° ENE
Cosmos 1151 Rocket 3.5 17:19:06 10° N 17:23:06 38° ENE 17:27:02 10° SSE
Resurs 01 Rocket 3.0 17:20:13 10° ESE 17:23:30 21° ENE 17:26:48 10° NNE
ACS3 Solar Sail 3.4 17:20:26 10° E 17:24:24 17° ENE 17:28:21 10° NNE
Cosmos 1340 2.8 17:21:32 10° SSE 17:24:33 37° E 17:27:37 10° NNE
Meteor PRIRODA 3.9 17:23:44 10° SE 17:26:50 39° ENE 17:29:57 10° N
USA 186 3.5 17:25:33 11° ESE 17:27:23 17° ENE 17:29:32 10° NNE
Cosmos 2333 Rocket 2.9 17:23:40 10° SW 17:29:21 61° WNW 17:35:05 10° NNE
ATLAS 3B R/B 3.0 17:24:41 10° NNW 17:32:37 83° ENE 17:40:15 10° SE
Cosmos 2219 Rocket 2.2 17:27:59 10° SSW 17:33:39 80° ESE 17:39:20 10° NNE
Helios 1A 2.8 17:31:59 10° NNE 17:36:03 68° ESE 17:40:03 10° S
Meteor 1-5 Rocket 4.2 17:31:14 10° S 17:36:45 81° E 17:42:31 10° N
BlueWalker 3 4.4 17:37:09 10° N 17:38:22 11° NNE 17:39:35 10° NE
SL-08 R/B 3.5 17:35:53 10° NNE 17:40:49 83° WNW 17:45:44 10° SSW
SAR-Lupe-2 3.6 17:37:20 10° S 17:40:53 80° WSW 17:44:28 10° NNW
USA 229 DEB 4.3 17:34:12 10° NNW 17:41:35 53° NE 17:48:31 14° SE
USA 229 4.3 17:34:22 10° NNW 17:41:44 52° NE 17:48:36 14° SE
Cosmos 1725 Rocket 4.5 17:40:07 10° SSW 17:46:13 65° W 17:52:23 10° N
CZ-4B R/B 3.3 17:42:24 10° SSE 17:47:08 90° WSW 17:51:55 10° NNW
Timation 2 Rocket 4.0 17:42:17 10° NNW 17:48:36 68° ENE 17:55:08 10° SSE
Cosmos 1766 Rocket 3.9 17:48:10 10° SSE 17:52:13 41° E 17:56:19 10° NNE
Cosmos 1626 2.4 17:49:21 10° NNW 17:52:17 51° W 17:55:11 10° S
SJ-6B 2.6 17:48:38 10° S 17:52:19 84° WSW 17:55:58 10° NNW
Cosmos 2322 3.6 17:48:42 10° S 17:54:15 63° ESE 17:59:50 10° NNE
Cosmos 1844 Rocket 4.0 17:50:05 10° NW 17:55:21 41° WSW 18:00:36 10° S
GEOS 3 Rocket 3.7 17:55:00 12° SSE 17:59:57 82° SW 18:05:11 10° NW
Cosmos 1066 Rocket 4.4 17:56:23 10° N 18:02:10 57° ENE 18:07:17 13° SSE
Cosmos 1400 Rocket 2.8 18:06:16 10° N 18:10:02 53° E 18:11:19 35° SE
CZ-4 R/B 1.3 18:06:31 10° S 18:10:16 75° W 18:14:06 10° NNW
COSMOS 2428 2.6 18:07:34 10° SSW 18:13:14 74° ESE 18:18:57 10° NNE
CSL-04 Debris 4.2 18:10:18 18° SSE 18:14:25 65° ENE 18:19:51 10° N
Cosmos 1818 4.0 18:09:35 10° SW 18:14:59 64° WNW 18:20:26 10° NNE
Cosmos 1726 2.8 18:12:36 10° SSW 18:15:15 39° W 18:17:56 10° N
Cosmos 1707 3.9 18:12:31 10° NNE 18:14:39 23° NE 18:14:39 23° NE
Cosmos 1937 Rocket 3.9 18:13:24 10° NNW 18:18:38 64° WSW 18:23:44 11° S
Cosmos 1536 3.9 18:20:01 27° NE 18:20:01 27° NE 18:22:14 10° NNE
Cosmos 1513 Rocket 4.4 18:14:33 10° S 18:20:29 62° E 18:26:28 10° NNE
BREEZE M DEB (TANK) 4.5 18:15:04 10° SW 18:20:30 85° SE 18:42:41 10° ENE
Meteor 1-14 Rocket 4.1 18:15:11 10° S 18:20:41 69° E 18:26:12 10° NNE
Lacrosse 4 Rocket 1.7 18:19:39 10° NNW 18:23:53 49° ENE 18:24:34 45° E
Cosmos 1464 Rocket 4.2 18:18:42 14° SSE 18:23:58 50° E 18:30:03 10° NNE
PAYLOAD B 4.4 18:18:32 10° S 18:24:05 73° WSW 18:29:42 10° NNW
Cosmos 1943 Rocket 3.7 18:20:43 10° N 18:24:28 18° NE 18:24:57 18° ENE
USA 59 Rocket 1.3 18:21:26 10° N 18:25:01 28° NE 18:25:31 27° ENE
KORONAS-FOTON 3.9 18:22:06 10° N 18:25:27 49° ENE 18:25:27 49° ENE
Meteor 1-11 Rocket 4.1 18:27:19 37° ESE 18:28:16 39° E 18:33:26 10° NNE
Cosmos 1356 Rocket 4.1 18:24:36 10° N 18:28:04 36° ENE 18:28:04 36° ENE
Terra 3.8 18:30:28 15° NE 18:30:28 15° NE 18:32:08 10° NNE
Cosmos 1328 Rocket 3.4 18:28:12 10° N 18:32:31 89° W 18:34:05 39° S
Meteor 1-4 Rocket 4.2 18:30:35 10° N 18:31:20 17° N 18:31:20 17° N
Cosmos 1674 2.4 18:31:40 10° NNW 18:35:00 70° W 18:35:10 68° WSW
CZ-4B R/B 3.3 18:33:16 18° S 18:37:24 75° WSW 18:42:51 10° NNW
CZ-4B R/B 4.4 18:34:40 11° SSW 18:37:48 32° W 18:41:17 10° NNW
ERS-1 Rocket 4.3 18:39:39 23° NE 18:39:39 23° NE 18:42:51 10° NNE
OAO 2 Rocket 3.8 18:34:14 10° W 18:38:53 43° SSW 18:39:33 40° S
Cosmos 2278 Rocket 2.8 18:35:28 10° N 18:40:41 36° ENE 18:41:07 36° ENE
NOSS 2-1 (C) 4.4 18:37:38 10° NNW 18:41:26 39° NE 18:41:26 39° NE
Cosmos 2034 Rocket 4.2 18:41:54 44° ESE 18:42:43 46° E 18:48:36 10° NNE
CARTOSAT-1 4.3 18:40:59 22° SSW 18:43:28 49° W 18:47:36 10° NNW
SPOT 5 3.3 18:45:10 43° NE 18:45:10 43° NE 18:49:07 10° N
Cosmos 1072 Rocket 4.4 18:40:51 10° S 18:47:15 85° E 18:53:42 10° N
NOSS 0 Rocket 3.8 18:45:26 10° SSW 18:51:40 89° ESE 18:57:57 10° NNE
Okean 3 Rocket 3.6 18:51:02 48° SSW 18:52:14 79° W 18:56:43 10° N
USA 306 3.8 18:51:16 10° WSW 18:54:09 35° NW 18:54:09 35° NW
MOS 1-B 4.5 18:51:28 30° S 18:54:27 71° WSW 19:00:15 10° NNW
Okean O Rocket 1.7 18:54:28 64° SSW 18:55:00 73° WSW 18:59:26 10° NNW
USA 215 3.1 18:51:16 10° NE 18:57:48 69° SE 19:04:19 10° SW
USA 186 4.2 18:58:07 17° WSW 18:58:57 19° W 19:01:22 10° NW
Resurs 01 Rocket 3.1 18:57:01 18° SSW 18:59:41 33° W 19:03:43 10° NNW
ATLAS CENTAUR R/B 4.2 18:54:56 10° WNW 19:00:33 40° SW 19:05:09 23° S
Aureole 3 Rocket 4.2 19:01:28 41° SSE 19:04:15 66° E 19:10:18 10° NNE
Cosmos 2237 Rocket 2.0 19:04:46 76° SE 19:04:59 78° ESE 19:10:37 10° NNE
MOS 1 Rocket 4.0 19:06:49 45° NNE 19:06:49 45° NNE 19:10:44 10° N
ACS3 Solar Sail 1.9 19:05:10 39° S 19:07:41 76° WSW 19:14:06 10° NNW
Okean-O 3.2 19:12:12 53° NNW 19:12:12 53° NNW 19:15:35 10° NNW
BlueWalker 3 4.0 19:13:47 10° NW 19:15:32 23° NNW 19:15:32 23° NNW
MetOp-B 4.1 19:17:45 76° N 19:17:45 76° N 19:22:43 10° NNW
NOSS 2-1 (E) 4.2 19:13:17 10° NNW 19:16:32 56° NNW 19:16:32 56° NNW
Cosmos 44 Rocket 4.2 19:13:18 10° NW 19:17:37 41° WSW 19:17:37 41° WSW
Cosmos 1515 Rocket 4.4 19:14:15 10° NNW 19:17:32 47° NW 19:17:32 47° NW
USA 267 4.4 19:29:00 29° NE 19:30:12 31° NNE 19:35:47 10° NNW
Cosmos 1980 4.2 19:29:57 21° SW 19:33:43 57° WNW 19:39:19 10° NNE
Cosmos 2369 Rocket 4.4 19:38:14 10° NNE 19:39:53 14° NNE 19:39:53 14° NNE
Lacrosse 4 Rocket 4.3 19:59:24 10° WNW 20:00:26 13° W 20:00:26 13° W
Terra 3.9 20:09:10 23° NNW 20:09:10 23° NNW 20:11:04 10° NNW
Cosmos 1943 Rocket 3.5 20:03:11 10° NNW 20:06:28 36° NW 20:06:28 36° NW
USA 59 Rocket 2.6 20:10:24 10° NW 20:11:54 20° WNW 20:11:54 20° WNW
Cosmos 2278 Rocket 4.0 20:19:46 10° NW 20:22:58 25° WNW 20:22:58 25° WNW
USA 215 4.4 20:34:35 10° NE 20:40:30 38° NNW 20:46:24 10° W
